User: anonymous   Login
Location: Overspoor
(51.4747°N, 5.6641°E)
Time: 09:04:20
(UTC+01:00)
Language:

RESURS 01 DEB - Orbit

View from above orbital plane
View from above orbital plane
View from above satellite
View from above satellite

Ground track
Ground track

The orbit data is extracted from the following two-line orbital elements,

1 46882U 94074BN  22330.57639710  .00027381  00000-0  26330-2 0  9997
2 46882  97.8953  21.1057 0007713 274.8134  85.2204 14.92945034111627
Epoch (UTC): 26 November 2022 13:50:00
Eccentricity: 0.0007713
inclination: 97.8953°
perigee height: 583 km
apogee height: 594 km
right ascension of ascending node: 21.1057°
argument of perigee: 274.8134°
revolutions per day: 14.92945034
mean anomaly at epoch: 85.2204°
orbit number at epoch: 11162

The dashed part of the orbit path shows where the satellite is in the earth's shadow,  

DLR